Miscellaneous Local Product
Issued by NWS Hastings, NE

Home | Current Version | Previous Version | Text Only | Print | Product List | Glossary On
Versions: 1 2 3 4 5 6 7 8 9 10 11 12 13 14 15 16 17 18 19 20 21 22 23 24 25 26 27 28 29 30 31 32 33 34 35 36 37 38 39 40 41 42 43 44 45 46 47 48 49 50
000
AXUS43 KGID 311402
MISGRI

GID CWA HOURLY WEATHER ROUNDUP
NATIONAL WEATHER SERVICE HASTINGS NE
900 AM CDT THU JUL 31 2014

NOTE: "FAIR" INDICATES FEW OR NO CLOUDS BELOW 12,000 FEET WITH NO
SIGNIFICANT WEATHER AND/OR OBSTRUCTIONS TO VISIBILITY.

...SOUTH CENTRAL NEBRASKA...

CITY           SKY/WX    TMP DP  RH WIND       PRES   REMARKS
GRAND ISLAND   SUNNY     72  55  55 S12       30.11F
HASTINGS       MOSUNNY   70  54  56 S6        30.13R
KEARNEY        MOSUNNY   66  55  68 SW7       30.13S
ORD            MOSUNNY   67  59  75 S6        30.08S
YORK           SUNNY     68  59  73 SW7       30.12S
AURORA         SUNNY     69  59  70 SW7       30.11F
LEXINGTON      MOSUNNY   67  62  81 SW3       30.14S
HOLDREGE       MOSUNNY   67  60  77 W6        30.14S
HEBRON         MOSUNNY   64  55  72 CALM      30.14S

...NEBRASKA PANHANDLE...

CITY           SKY/WX    TMP DP  RH WIND       PRES   REMARKS
CHADRON        SUNNY     62  51  67 SW3       30.19S
ALLIANCE       SUNNY     64  53  67 NW3       30.21R
SCOTTSBLUFF    SUNNY     64  57  78 W3        30.22S
SIDNEY         SUNNY     66  56  70 NW7       30.24S

...WESTERN AND NORTH CENTRAL NEBRASKA...

CITY           SKY/WX    TMP DP  RH WIND       PRES   REMARKS
VALENTINE      SUNNY     70  55  59 NW10      30.11R
AINSWORTH      SUNNY     66  54  63 NW10      30.10R
ONEILL         MOSUNNY   67  60  77 SW8       30.07S
BROKEN BOW     SUNNY     68  62  81 W5        30.10S
IMPERIAL       MOSUNNY   65  59  81 W6        30.20S
NORTH PLATTE   MOSUNNY   65  59  81 W9        30.15S
MCCOOK         MOSUNNY   66  60  81 W8        30.18R

...EASTERN NEBRASKA...

CITY           SKY/WX    TMP DP  RH WIND       PRES   REMARKS
NORFOLK        CLOUDY    63  58  83 E5        30.10R
SO SIOUX CITY  CLOUDY    63  58  83 CALM      30.10R
TEKAMAH        SUNNY     66  59  78 VRB3      30.11R
ALBION         SUNNY     67  56  66 S6        30.09S
OMAHA EPPLEY   MOSUNNY   68  58  70 SE3       30.11S
OFFUTT AFB     SUNNY     66  66 100 CALM      30.11S
MILLARD        SUNNY     70  58  65 CALM      30.11S
LINCOLN        SUNNY     67  56  67 VRB3      30.12F
NEBRASKA CITY  SUNNY     68  57  66 SW3       30.13R
BEATRICE       MOSUNNY   65  57  75 CALM      30.13S
FALLS CITY     SUNNY     65  59  81 CALM      30.12R

...NORTHERN KANSAS...

CITY           SKY/WX    TMP DP  RH WIND       PRES   REMARKS
GOODLAND       SUNNY     65  58  78 W7        30.25R
HILL CITY      MOSUNNY   67  58  72 W3        30.17R
NORTON         PTSUNNY   68  57  68 W6        30.16S
PHILLIPSBURG   SUNNY     64  59  82 CALM      30.15R HAZE
SMITH CENTER   SUNNY     66  57  72 SW5       30.15S
HAYS           SUNNY     64  57  77 CALM      30.16S
RUSSELL        MOSUNNY   64  60  87 S3        30.15R
CONCORDIA      SUNNY     66  58  75 CALM      30.14R
SALINA         SUNNY     66  60  81 CALM      30.15R
TOPEKA         MOSUNNY   66  58  75 W5        30.13R



USA.gov is the U.S. government's official web portal to all federal, state and local government web resources and services.